EW9282 Weather Reports


Display with metric or nautical units.
time (UTC)temp
F
wind
direction
speed
MPH
gust
MPH
rain 1hr
in
rain 24hr
in
rain mn
in
humidity
%
barometer
mb
20260504081253 41 145 0.0 2.0 0.00 0.00 0.00 84 1005.7
20260504080746 41 155 0.0 1.0 0.00 0.00 0.00 84 1005.8
20260504080517 41 155 0.0 1.0 0.00 0.00 0.00 83 1005.8
20260504070229 42 243 0.0 2.0 0.00 0.00 0.00 78 1005.8
20260504060210 41 214 0.0 2.0 0.00 0.00 0.00 69 1006.0
20260504050149 39 175 0.0 1.0 0.00 0.00 0.00 67 1006.2
20260504045646 39 175 0.0 1.0 0.00 0.00 0.00 67 1006.2
20260504045147 40 175 0.0 2.0 0.00 0.00 0.00 67 1006.3
20260504044643 40 175 0.0 2.0 0.00 0.00 0.00 66 1006.3
20260504044142 40 201 0.0 2.0 0.00 0.00 0.00 66 1006.4
20260504043643 40 190 0.0 2.0 0.00 0.00 0.00 65 1006.5
20260504043142 40 203 0.0 1.0 0.00 0.00 0.00 65 1006.6
20260504042642 40 208 0.0 1.0 0.00 0.00 0.00 64 1006.6
20260504042141 40 226 0.0 2.0 0.00 0.00 0.00 64 1006.6
20260504041934 40 188 0.0 2.0 0.00 0.00 0.00 63 1006.5
20260504041140 40 175 0.0 2.0 0.00 0.00 0.00 63 1006.5
20260504040636 40 182 0.0 2.0 0.00 0.00 0.00 63 1006.5
20260504040405 41 225 0.0 2.0 0.00 0.00 0.00 62 1006.5
20260504035631 41 200 0.0 1.0 0.00 0.00 0.00 62 1006.5
20260504035133 41 200 0.0 2.0 0.00 0.00 0.00 62 1006.5
20260504034901 41 215 0.0 2.0 0.00 0.00 0.00 61 1006.5
20260504034132 41 153 0.0 2.0 0.00 0.00 0.00 61 1006.5
20260504033628 41 205 0.0 2.0 0.00 0.00 0.00 61 1006.6
20260504033128 41 184 0.0 2.0 0.00 0.00 0.00 61 1006.6
20260504032128 41 226 0.0 2.0 0.00 0.00 0.00 61 1006.6
20260504031629 41 180 0.0 2.0 0.00 0.00 0.00 61 1006.7
20260504031126 41 235 0.0 2.0 0.00 0.00 0.00 61 1006.7
20260504030627 41 175 0.0 1.0 0.00 0.00 0.00 60 1006.7
20260504030127 41 161 0.0 1.0 0.00 0.00 0.00 60 1006.7
20260504025900 41 230 0.0 1.0 0.00 0.00 0.00 60 1006.7
20260504025127 42 230 0.0 0.0 0.00 0.00 0.00 60 1006.8
20260504024624 42 230 0.0 0.0 0.00 0.00 0.00 59 1006.9
20260504024123 42 230 0.0 0.0 0.00 0.00 0.00 58 1006.9
20260504023623 43 230 0.0 0.0 0.00 0.00 0.00 57 1006.9
20260504023119 43 230 0.0 1.0 0.00 0.00 0.00 57 1006.9
20260504022621 43 230 0.0 1.0 0.00 0.00 0.00 56 1007.0
20260504022114 44 230 0.0 1.0 0.00 0.00 0.00 55 1007.1
20260504021850 44 230 0.0 1.0 0.00 0.00 0.00 54 1007.1
20260504021114 44 229 0.0 2.0 0.00 0.00 0.00 54 1007.2
20260504020611 45 229 0.0 2.0 0.00 0.00 0.00 53 1007.2
20260504020111 45 236 0.0 2.0 0.00 0.00 0.00 52 1007.2
20260504015610 45 231 0.0 2.0 0.00 0.00 0.00 52 1007.1
20260504015112 46 245 0.0 4.0 0.00 0.00 0.00 52 1007.2
20260504014605 46 245 0.0 4.0 0.00 0.00 0.00 51 1007.2
20260504014105 46 245 0.0 5.0 0.00 0.00 0.00 52 1007.2
20260504013604 46 236 1.0 5.0 0.00 0.00 0.00 51 1007.3
20260504013334 46 224 1.0 4.0 0.00 0.00 0.00 51 1007.3
20260504012603 46 241 1.0 4.0 0.00 0.00 0.00 51 1007.3
20260504012104 45 193 0.0 3.0 0.00 0.00 0.00 53 1007.3
20260504011601 45 250 0.0 2.0 0.00 0.00 0.00 54 1007.3
20260504010829 45 240 0.0 1.0 0.00 0.00 0.00 55 1007.2
20260504010100 45 250 0.0 1.0 0.00 0.00 0.00 54 1007.1
20260504005558 46 250 0.0 1.0 0.00 0.00 0.00 55 1007.1
20260504005057 46 250 0.0 1.0 0.00 0.00 0.00 53 1007.0
20260504004555 46 250 0.0 1.0 0.00 0.00 0.00 52 1007.0
20260504004056 47 250 0.0 1.0 0.00 0.00 0.00 53 1007.0
20260504003553 47 250 0.0 1.0 0.00 0.00 0.00 52 1006.9
20260504003052 47 250 0.0 1.0 0.00 0.00 0.00 51 1006.9
20260504002546 48 250 0.0 2.0 0.00 0.00 0.00 50 1006.9
20260504002046 48 250 1.0 5.0 0.00 0.00 0.00 49 1006.9
20260504001545 49 250 1.0 5.0 0.00 0.00 0.00 48 1006.9
20260504000544 49 273 1.0 5.0 0.00 0.00 0.00 48 1006.9
20260504000045 49 264 1.0 5.0 0.00 0.00 0.00 48 1006.8
20260503235545 50 234 1.0 4.0 0.00 0.00 0.00 46 1006.8
20260503235039 50 260 1.0 4.0 0.00 0.00 0.00 46 1006.8
20260503234810 51 250 1.0 4.0 0.00 0.00 0.00 45 1006.8
20260503234039 51 240 1.0 4.0 0.00 0.00 0.00 44 1006.7
20260503233539 51 252 1.0 5.0 0.00 0.00 0.00 44 1006.7
20260503233040 51 245 1.0 6.0 0.00 0.00 0.00 44 1006.7
20260503232539 51 245 1.0 6.0 0.00 0.00 0.00 43 1006.7
20260503232039 52 186 1.0 8.0 0.00 0.00 0.00 44 1006.7
20260503231538 52 261 1.0 8.0 0.00 0.00 0.00 42 1006.7
20260503231035 52 210 1.0 5.0 0.00 0.00 0.00 42 1006.7
20260503230534 53 251 1.0 5.0 0.00 0.00 0.00 39 1006.7
20260503230032 53 243 1.0 7.0 0.00 0.00 0.00 40 1006.6
20260503225530 54 91 2.0 7.0 0.00 0.00 0.00 39 1006.6
20260503225030 55 257 2.0 8.0 0.00 0.00 0.00 39 1006.7
20260503224530 55 272 2.0 8.0 0.00 0.00 0.00 38 1006.7
20260503224031 55 302 2.0 8.0 0.00 0.00 0.00 39 1006.7
20260503223528 54 229 2.0 10.0 0.00 0.00 0.00 38 1006.7
20260503223026 55 210 2.0 10.0 0.00 0.00 0.00 37 1006.7
20260503222527 55 266 2.0 10.0 0.00 0.00 0.00 39 1006.7
20260503222026 55 210 2.0 10.0 0.00 0.00 0.00 39 1006.7
20260503221525 55 85 2.0 8.0 0.00 0.00 0.00 37 1006.7
20260503221025 55 13 1.0 6.0 0.00 0.00 0.00 39 1006.7
20260503220526 54 297 1.0 7.0 0.00 0.00 0.00 41 1006.8
20260503220022 54 257 2.0 7.0 0.00 0.00 0.00 39 1006.8
20260503215520 55 228 2.0 9.0 0.00 0.00 0.00 38 1006.7
20260503215250 56 353 2.0 9.0 0.00 0.00 0.00 37 1006.7
20260503214518 56 275 2.0 6.0 0.00 0.00 0.00 39 1006.8
20260503214245 55 250 3.0 9.0 0.00 0.02 0.00 38 1006.8
20260503213515 54 236 3.0 9.0 0.00 0.02 0.00 37 1006.8
20260503213014 54 44 2.0 8.0 0.00 0.04 0.00 37 1006.8
20260503212515 54 274 1.0 5.0 0.00 0.04 0.00 38 1006.8
20260503212008 55 234 1.0 6.0 0.00 0.04 0.00 39 1006.8
20260503211737 55 48 2.0 6.0 0.00 0.04 0.00 38 1006.8
20260503210503 56 349 2.0 9.0 0.00 0.04 0.00 39 1006.8
20260503210000 56 294 2.0 8.0 0.00 0.04 0.00 37 1006.8
20260503205501 56 141 2.0 8.0 0.00 0.04 0.00 39 1006.8
20260503204955 56 233 1.0 5.0 0.00 0.04 0.00 39 1006.8
20260503204454 55 274 1.0 6.0 0.00 0.04 0.00 40 1006.9
20260503203952 55 266 3.0 8.0 0.00 0.04 0.00 38 1006.9
20260503203450 56 280 3.0 9.0 0.00 0.04 0.00 38 1007.0
20260503202950 56 255 2.0 11.0 0.00 0.04 0.00 41 1006.9
20260503202450 55 274 2.0 11.0 0.00 0.04 0.00 42 1006.9
20260503201947 54 306 1.0 8.0 0.00 0.04 0.00 42 1006.9
20260503201721 53 287 1.0 10.0 0.00 0.04 0.00 42 1007.1
20260503200948 54 299 2.0 10.0 0.00 0.04 0.00 41 1007.1
20260503200719 54 244 3.0 10.0 0.00 0.04 0.00 40 1007.2
20260503195947 55 234 3.0 11.0 0.00 0.04 0.00 43 1007.3
20260503195448 54 208 2.0 11.0 0.00 0.04 0.00 42 1007.3
20260503194948 54 250 3.0 12.0 0.00 0.04 0.00 42 1007.3
20260503194448 54 290 3.0 12.0 0.00 0.04 0.00 42 1007.4
20260503193949 54 243 3.0 9.0 0.00 0.04 0.00 42 1007.5
20260503193444 53 273 3.0 12.0 0.00 0.04 0.00 44 1007.6
20260503192944 53 271 2.0 12.0 0.00 0.04 0.00 45 1007.6
20260503192444 54 206 2.0 9.0 0.00 0.05 0.00 43 1007.7
20260503191945 53 246 3.0 12.0 0.00 0.05 0.00 44 1007.7
20260503191445 52 256 3.0 12.0 0.00 0.05 0.00 44 1007.8
20260503190943 52 257 2.0 8.0 0.00 0.05 0.00 46 1007.9
20260503190443 51 231 2.0 9.0 0.00 0.05 0.00 46 1007.9
20260503185944 51 218 3.0 9.0 0.00 0.05 0.00 47 1008.0
20260503185444 51 190 3.0 8.0 0.00 0.05 0.00 45 1008.0
20260503184945 51 231 2.0 8.0 0.00 0.05 0.00 47 1008.1
20260503184439 51 84 3.0 8.0 0.00 0.05 0.00 46 1008.1
20260503183932 51 281 2.0 8.0 0.00 0.05 0.00 45 1008.2
20260503183426 52 215 2.0 8.0 0.00 0.05 0.00 47 1008.1
20260503182926 53 327 3.0 8.0 0.00 0.05 0.00 47 1008.2
20260503181925 52 290 3.0 11.0 0.00 0.05 0.00 46 1008.2
20260503181425 52 272 2.0 9.0 0.00 0.05 0.00 47 1008.3
20260503180926 53 179 2.0 8.0 0.00 0.06 0.00 47 1008.3
20260503180426 53 305 3.0 8.0 0.00 0.06 0.00 46 1008.4
20260503175926 52 313 3.0 9.0 0.00 0.07 0.00 49 1008.4
20260503175419 51 234 2.0 9.0 0.00 0.08 0.00 51 1008.5
20260503174920 51 271 2.0 8.0 0.00 0.09 0.00 51 1008.5
20260503174420 51 316 2.0 8.0 0.00 0.11 0.00 48 1008.5
20260503173920 51 113 2.0 9.0 0.00 0.12 0.00 50 1008.6
20260503173653 51 240 2.0 9.0 0.00 0.14 0.00 50 1008.5
20260503172920 51 79 2.0 7.0 0.00 0.17 0.00 54 1008.7
20260503172651 49 240 3.0 11.0 0.00 0.18 0.00 52 1008.7
20260503171920 50 274 2.0 11.0 0.00 0.18 0.00 50 1008.8
20260503171419 51 25 2.0 8.0 0.00 0.18 0.00 48 1008.8
20260503170911 51 223 2.0 9.0 0.00 0.18 0.00 47 1008.8
20260503170412 51 249 3.0 9.0 0.00 0.18 0.00 47 1008.9
20260503170142 51 245 2.0 7.0 0.00 0.18 0.00 48 1008.8
20260503150852 50 252 1.0 5.0 0.00 0.18 0.00 55 1010.1
20260503150352 50 338 1.0 5.0 0.00 0.18 0.00 58 1010.2
20260503140116 49 65 0.0 4.0 0.00 0.18 0.00 70 1010.8
20260503130331 45 271 0.0 2.0 0.00 0.20 0.00 77 1011.0
20260503110823 41 60 0.0 3.0 0.00 0.24 0.00 89 1010.9
20260503110554 40 276 0.0 2.0 0.00 0.24 0.00 91 1010.9
20260503090241 39 268 0.0 2.0 0.00 0.25 0.00 91 1010.8